Location: Nijmegen RU
(51.8233°N, 354.1314°E)
Time: 05:41:41
(UTC+01:00)

Envisat - Visible Passes

Search period start: 23 February 2019 00:00
Search period end: 05 March 2019 00:00
Orbit: 764 x 766 km, 98.2° (Epoch: 22 February)

Date Brightness Start Highest point End Pass type
(mag) Time Alt. Az. Time Alt. Az. Time Alt. Az.
23 Feb 3.0 19:43:29 10° SSE 19:48:34 82° ENE 19:53:40 10° NNW visible
23 Feb 5.8 21:24:57 10° SW 21:28:14 17° W 21:31:33 10° NW visible
24 Feb 6.0 07:47:37 10° NE 07:51:14 19° E 07:54:51 10° SE visible
24 Feb 4.8 20:46:32 10° SSW 20:51:05 33° W 20:55:40 10° NNW visible
25 Feb 3.5 20:09:05 10° S 20:14:07 64° WSW 20:19:13 10° NNW visible
25 Feb 6.3 21:53:34 10° W 21:54:11 10° W 21:54:49 10° WNW visible
26 Feb 3.0 19:32:19 10° SSE 19:37:21 68° ENE 19:42:26 10° N visible
26 Feb 5.6 21:13:06 10° SW 21:16:52 21° W 21:20:41 10° NW visible
27 Feb 6.2 07:36:48 10° NE 07:39:53 16° E 07:42:56 10° ESE visible
27 Feb 4.5 20:35:01 10° SSW 20:39:47 40° W 20:44:35 10° NNW visible
28 Feb 3.2 19:57:48 10° S 20:02:53 78° WSW 20:08:00 10° NNW visible
28 Feb 6.1 21:40:32 10° WSW 21:42:47 13° W 21:45:04 10° WNW visible
01 Mar 5.3 21:01:23 10° SSW 21:05:32 25° W 21:09:45 10° NW visible
02 Mar 6.4 07:26:14 10° ENE 07:28:30 13° E 07:30:46 10° ESE visible
02 Mar 4.1 20:23:36 10° S 20:28:31 48° W 20:33:27 10° NNW visible
03 Mar 3.0 19:46:35 10° SSE 19:51:40 87° ENE 19:56:48 10° NNW visible
03 Mar 5.9 21:28:21 10° WSW 21:31:24 16° W 21:34:29 10° NW visible
04 Mar 5.0 20:49:46 10° SSW 20:54:13 30° W 20:58:43 10° NNW visible
